Wind_Speed
18 19 20 20 20 19 18 17 17 17 17 16 16 16 15 15 14 14 14 14 14 14 13 13 13 14 13 12 13 13 14 14 13 12 12 12 13 13 12 12 12 12 12 12 12 12 12 11 11 11 11 11 11 11 10 10 10 10 10 11 11 12 12 13 14 14 15 16 16 17 18 19 19 20
17 18 19 20 21 21 21 20 18 18 18 18 17 17 17 17 16 16 15 15 15 15 15 15 14 14 14 13 14 14 15 15 14 14 14 14 14 14 14 13 14 14 14 14 14 14 13 13 13 13 13 13 12 12 12 12 12 12 12 13 13 14 14 15 16 16 17 18 18 19 20 21 22 22
18 18 18 20 22 23 23 22 21 20 19 19 19 18 18 18 18 17 17 17 17 16 16 16 16 15 15 15 15 15 15 16 15 15 15 16 16 16 16 16 16 16 16 16 15 15 15 15 15 15 15 14 14 14 13 13 14 14 14 15 15 16 16 17 18 18 19 20 20 21 22 23 23 24
19 19 19 19 21 22 24 24 23 22 22 21 21 20 19 19 19 19 19 19 18 18 18 18 17 17 16 16 16 16 17 17 16 16 16 17 17 17 18 17 17 17 17 17 17 16 17 17 17 16 16 15 15 15 15 15 16 16 17 17 17 18 18 19 19 20 21 22 22 23 23 23 24 24
21 21 20 20 20 21 22 24 24 24 24 23 23 22 21 21 21 20 21 20 19 18 19 19 20 19 18 17 17 18 18 18 18 18 18 18 18 19 19 18 18 18 18 18 18 18 18 18 18 17 17 17 17 17 17 18 18 19 19 19 20 20 20 20 21 22 22 23 23 24 24 24 24 25
23 23 22 22 21 21 21 22 23 24 24 24 24 24 24 23 23 22 22 22 21 20 20 20 21 21 20 19 18 19 19 19 19 19 19 19 19 19 19 19 19 19 19 19 19 19 20 19 19 18 18 18 19 19 20 20 21 21 21 21 21 21 21 22 22 23 23 24 24 24 24 25 25 26
24 24 24 23 23 22 22 22 23 23 24 24 24 25 25 25 24 24 24 24 24 22 22 22 22 22 22 21 20 20 21 21 21 21 21 20 21 21 20 20 20 21 20 20 21 21 21 21 20 20 20 20 21 22 22 23 23 23 23 22 22 22 22 22 23 23 23 23 24 24 25 25 26 26
25 25 25 25 25 24 23 23 23 24 24 25 24 24 25 25 25 25 25 26 26 25 24 24 24 23 23 23 22 22 22 22 22 22 22 22 22 22 22 22 23 23 22 22 22 23 23 23 22 22 22 23 23 24 24 24 24 23 23 23 23 22 22 22 23 23 23 24 24 25 25 26 27 27
27 27 26 26 27 26 25 25 25 25 25 26 26 25 25 25 25 26 26 26 27 27 26 26 25 25 25 25 24 24 23 23 24 24 24 24 24 24 24 24 25 25 24 24 24 24 25 25 24 24 24 25 26 26 26 25 24 23 23 23 22 22 23 23 23 24 24 25 25 25 26 27 27 28
29 29 28 28 28 28 27 26 26 27 27 27 27 27 27 27 26 26 26 26 27 27 27 27 27 27 28 27 27 26 26 26 26 26 26 26 25 25 26 26 26 26 26 25 25 26 27 27 27 26 25 26 26 26 26 25 24 23 23 23 23 23 23 24 24 24 25 25 26 27 27 28 29 30
30 30 30 29 29 29 29 28 28 28 28 29 29 29 29 29 28 28 27 27 28 28 28 28 28 28 29 29 29 29 28 28 29 29 29 28 27 27 27 27 27 28 28 28 28 28 29 29 28 27 25 25 25 26 25 25 24 25 25 24 24 24 24 24 25 25 26 26 27 28 29 30 31 31
30 31 31 31 30 30 30 30 30 30 30 30 30 30 30 30 30 29 29 29 29 29 29 29 29 29 29 29 30 30 30 30 30 30 31 31 30 29 29 29 29 29 29 30 30 31 30 30 29 27 25 25 25 26 26 26 26 27 27 26 26 25 25 25 26 26 27 28 29 30 31 32 32 32
31 31 31 31 31 31 31 32 32 32 32 32 32 32 32 32 32 31 31 30 30 30 30 31 31 30 29 29 30 30 30 30 31 31 32 33 32 31 31 31 30 30 31 31 32 31 30 29 28 27 26 27 27 28 28 28 29 29 28 28 27 27 27 27 27 28 29 30 31 32 33 33 33 33
33 33 33 32 32 32 31 32 33 33 34 34 35 35 34 34 34 33 33 32 31 31 31 32 32 32 30 30 30 30 30 31 32 32 32 32 32 32 31 32 31 32 32 32 32 32 30 29 28 28 28 29 29 30 30 30 31 31 30 30 29 29 29 29 29 30 31 32 33 33 34 34 34 34
33 33 33 33 34 33 33 33 34 34 35 35 36 37 37 37 36 35 35 34 34 33 33 33 33 33 32 32 32 31 31 32 33 32 32 32 32 32 32 32 31 31 32 32 32 31 30 29 29 29 29 31 32 32 32 32 32 32 31 31 31 31 31 31 32 32 33 34 34 34 34 35 35 36
32 32 32 32 33 33 34 34 35 35 36 36 37 37 38 38 38 37 37 36 36 35 35 35 35 34 33 33 34 33 33 33 34 34 34 33 33 32 32 32 32 31 32 33 33 32 30 29 30 31 31 32 34 35 34 34 34 33 32 32 32 32 33 33 33 34 34 34 35 35 36 36 37 37
30 30 30 31 31 32 33 34 35 36 37 38 38 38 39 39 39 38 38 38 37 37 36 36 35 35 35 35 35 35 36 36 36 35 35 35 35 34 33 33 33 32 33 34 34 33 32 31 31 33 33 33 35 36 35 34 35 35 34 34 34 34 34 34 34 34 35 35 36 36 37 37 38 38
28 29 30 30 30 30 31 32 34 36 37 39 40 40 40 40 40 39 39 38 38 38 37 36 35 35 36 36 36 38 39 39 38 37 37 38 37 35 34 34 34 33 33 35 35 33 32 33 32 33 34 35 36 36 36 35 35 36 36 36 36 35 35 35 35 35 35 36 36 37 37 38 39 39
28 29 29 30 30 30 31 31 33 34 36 37 38 39 40 41 41 40 39 39 39 39 38 38 37 37 38 38 38 40 41 41 40 40 39 40 39 37 35 34 34 33 34 37 37 35 34 35 34 33 35 37 37 36 36 36 36 38 39 38 36 36 36 36 35 35 36 36 36 37 38 38 39 39
27 28 28 29 30 31 31 32 33 34 35 36 36 37 38 40 41 40 40 40 40 40 40 39 39 39 40 40 40 41 43 43 43 42 41 41 39 37 35 35 35 35 36 38 39 38 36 36 36 36 37 38 38 38 38 37 37 39 41 39 37 37 37 36 36 36 36 36 37 37 37 38 39 38
26 27 28 29 30 30 31 33 34 35 36 36 36 37 38 40 40 39 40 41 41 41 42 42 41 41 42 43 42 43 44 44 45 44 42 42 40 38 37 36 36 37 38 39 38 38 38 38 38 38 39 40 39 39 40 39 38 39 40 39 38 38 37 37 37 37 37 37 37 37 37 38 37 35
27 27 27 29 30 30 31 33 34 35 36 36 36 37 38 40 40 39 40 42 43 43 43 44 44 43 44 44 44 45 45 45 46 45 43 43 42 40 38 38 38 38 39 40 39 38 39 41 40 39 40 40 41 41 41 41 40 40 39 38 38 39 38 38 38 38 38 37 37 36 36 36 35 34
27 27 28 29 30 31 32 33 33 34 35 35 36 38 39 39 38 38 41 44 45 45 45 45 46 46 45 46 47 46 46 47 48 47 45 44 43 42 40 39 40 39 39 41 40 39 39 41 41 41 41 40 42 43 42 41 41 41 39 39 39 39 39 39 40 40 39 38 36 36 35 34 33 32
27 28 29 29 30 31 32 33 33 34 35 35 35 37 39 38 37 39 44 45 46 47 47 47 47 48 48 48 48 47 47 48 48 48 46 45 44 44 42 41 40 40 40 41 42 41 40 42 43 42 41 40 42 44 43 41 41 41 40 41 40 38 38 39 41 41 40 37 35 34 34 33 32 30
27 28 29 29 30 30 31 33 33 34 34 35 35 36 37 38 38 41 44 45 46 48 49 48 48 48 48 48 48 48 49 48 48 49 48 46 46 45 44 43 42 42 43 43 43 42 42 41 42 43 43 42 43 45 43 42 41 41 42 42 42 40 39 40 40 39 38 35 34 33 32 31 29 28
26 27 29 30 30 31 31 32 33 33 34 35 35 35 36 37 38 41 44 45 46 49 49 48 48 48 47 46 47 49 49 48 50 52 51 49 47 46 46 45 43 44 47 46 44 43 42 41 42 44 45 44 43 43 44 43 43 42 42 43 43 41 41 42 41 38 35 33 32 32 31 29 27 27
27 27 28 29 30 31 31 31 31 32 33 34 35 35 36 36 38 40 43 44 45 48 48 48 48 47 46 46 47 48 48 48 51 53 52 51 49 48 48 48 46 47 50 49 45 44 44 43 45 46 46 45 44 43 44 45 45 44 43 43 43 41 42 43 41 37 33 31 29 29 28 28 27 27
27 27 28 29 29 30 31 31 31 31 33 34 34 35 36 36 37 39 41 42 45 47 48 48 47 46 45 47 47 47 48 49 50 52 52 52 51 50 51 50 48 49 51 49 46 46 46 46 48 47 46 44 43 43 44 45 45 44 42 42 42 41 41 42 40 36 33 30 27 26 26 26 27 27
28 28 28 28 29 29 30 30 31 31 32 34 34 35 35 36 36 38 39 40 43 46 46 46 46 45 45 47 47 48 50 50 49 51 53 54 52 52 52 51 50 50 51 49 48 48 48 48 48 46 45 44 43 42 43 43 44 43 41 40 41 40 40 40 38 34 31 28 27 26 26 26 27 27
29 28 29 29 29 29 29 30 30 31 32 33 34 35 35 34 34 36 37 38 40 43 43 44 44 44 45 46 48 49 49 48 48 51 55 56 55 54 52 51 50 50 49 50 50 49 49 48 47 46 44 44 43 43 43 42 42 42 40 39 40 40 38 37 35 32 29 27 27 27 26 27 27 26
30 29 29 29 29 29 29 29 30 31 32 33 33 34 34 33 32 34 35 36 37 38 40 41 41 42 43 46 47 47 46 46 48 52 54 55 54 53 52 52 52 50 49 50 51 50 49 48 47 45 43 43 42 42 42 41 41 41 40 39 39 39 37 34 32 30 28 27 27 27 27 27 27 26
32 31 30 30 29 30 30 30 30 31 31 32 33 33 33 32 31 31 32 33 34 35 37 38 38 38 39 43 44 43 44 46 49 51 53 53 52 52 54 55 54 50 49 50 51 49 47 46 45 43 41 40 39 39 41 40 39 39 38 37 37 37 35 31 29 28 27 28 28 28 28 27 26 26
34 33 32 31 30 30 30 30 30 30 31 32 33 33 32 31 30 30 30 31 32 33 35 36 36 36 37 40 42 42 44 47 49 50 52 52 52 53 55 56 54 50 49 50 50 48 47 46 44 41 38 36 37 39 40 38 36 36 36 35 36 35 32 29 27 27 28 29 29 29 28 27 26 26
36 36 35 33 31 31 31 31 30 30 30 30 31 32 31 30 29 29 28 28 28 29 31 33 35 36 37 39 40 41 43 45 46 48 50 52 54 56 56 55 53 50 48 48 48 47 46 44 42 40 38 37 36 38 39 37 36 36 36 35 34 32 28 27 27 27 29 30 29 28 27 27 27 27
37 37 37 35 33 32 31 31 31 30 29 29 29 30 31 30 28 27 26 25 25 25 27 28 31 34 37 39 39 39 41 44 46 47 48 50 53 56 55 54 52 49 46 46 47 46 45 44 42 40 39 37 36 37 38 38 37 37 36 34 31 28 27 27 28 29 30 30 29 28 27 27 27 28
38 38 38 36 34 32 32 31 31 30 29 28 28 28 29 29 28 25 24 23 23 24 24 24 25 27 31 35 36 35 37 41 43 44 43 43 47 50 51 51 50 46 42 43 44 44 44 44 42 40 39 38 37 38 40 40 39 38 34 31 28 27 27 28 29 30 30 29 28 28 27 27 28 28
37 38 38 37 35 33 32 31 31 30 30 29 28 27 28 28 27 25 23 22 22 22 23 23 23 23 24 28 30 30 32 36 38 37 37 39 41 45 46 46 44 41 40 42 43 43 43 42 40 39 40 40 40 41 42 41 39 35 30 27 27 28 29 30 30 30 30 29 29 28 28 28 28 29
37 36 36 37 36 35 33 32 31 30 30 29 29 28 27 27 27 26 23 22 21 21 22 22 23 22 22 24 25 25 29 36 37 35 34 35 36 37 39 40 40 39 40 42 42 41 40 39 39 40 42 42 41 41 40 37 33 30 27 27 28 29 30 31 31 31 30 29 29 29 29 29 29 29
36 36 35 36 36 36 35 33 31 31 30 30 29 28 27 26 26 26 25 23 21 21 21 21 21 20 20 21 22 22 24 30 32 31 30 32 32 33 35 37 38 38 39 40 40 39 39 40 40 41 42 41 39 36 34 30 28 27 28 29 29 30 32 32 31 31 30 30 30 30 29 30 30 29
36 36 36 36 36 36 35 34 32 31 31 30 30 29 28 27 26 26 25 24 23 21 20 20 20 19 18 19 19 19 20 23 26 28 29 30 31 33 34 36 36 37 38 40 40 39 39 40 40 38 37 35 32 29 28 28 27 28 30 31 31 31 32 32 32 32 31 31 31 31 31 31 31 30
37 37 37 37 36 36 36 35 33 32 31 32 31 30 29 28 27 26 25 25 24 23 21 20 20 19 19 18 17 17 18 20 22 24 26 27 29 31 33 35 36 37 38 38 38 37 36 34 32 30 29 27 25 25 27 29 29 29 30 32 32 32 32 33 33 32 32 32 32 32 32 32 32 31
39 37 37 37 37 36 36 35 34 34 33 33 33 32 31 29 28 27 26 25 25 24 23 21 20 20 19 19 18 17 17 16 17 18 20 22 24 25 27 28 29 30 30 29 28 29 28 25 23 25 25 23 24 27 29 30 30 30 30 31 32 33 33 33 33 33 33 33 33 34 33 33 32 32
40 39 38 37 37 36 36 36 36 36 36 35 35 34 32 31 29 29 28 27 26 25 25 23 22 20 20 19 19 18 18 17 16 16 17 19 20 19 20 21 21 20 20 20 21 23 23 21 22 25 25 24 26 29 30 30 31 31 31 32 33 34 34 34 34 35 34 34 35 35 34 34 33 33
40 40 39 38 38 37 36 36 37 37 37 37 37 36 34 32 31 30 29 29 28 27 26 26 24 23 22 21 20 19 20 20 19 18 19 19 19 19 20 20 18 17 18 20 22 23 24 24 26 28 28 28 29 30 31 31 32 32 32 33 34 35 36 36 35 35 35 36 36 36 35 34 34 34
39 39 39 39 38 37 36 36 36 36 36 37 38 37 37 35 33 31 31 30 30 29 28 28 27 26 25 24 22 21 21 22 22 21 21 21 20 20 21 21 19 19 21 24 26 26 26 26 28 29 30 31 31 31 32 32 33 33 34 35 35 36 37 36 36 36 36 36 36 36 35 35 35 35
Wind_Direction
233 232 232 233 232 231 231 230 229 231 234 234 230 231 234 236 237 238 238 239 240 239 239 240 242 244 242 239 239 241 243 243 243 241 241 241 238 236 233 231 229 228 228 231 232 233 235 238 241 244 247 250 253 257 260 262 266 269 272 275 278 281 284 288 291 294 295 296 297 297 297 296 296 296
236 233 232 233 234 235 235 234 232 232 233 235 234 233 236 238 239 239 240 240 241 241 241 240 240 241 242 241 241 241 243 244 243 241 240 240 239 237 234 233 233 233 234 235 236 238 240 242 245 248 250 253 255 257 261 264 268 271 274 277 280 284 287 289 291 292 293 293 294 294 295 295 295 295
241 239 235 233 233 235 237 238 236 235 236 238 239 238 238 241 242 242 242 242 242 242 243 243 242 240 240 242 242 242 243 245 246 244 243 242 242 240 238 237 237 237 238 239 241 242 244 246 248 250 252 255 259 262 266 269 272 274 277 279 281 283 285 287 288 288 289 290 290 291 292 293 294 294
243 243 242 239 236 235 236 239 240 239 240 242 243 244 243 243 244 245 245 245 244 245 246 246 244 242 240 241 244 244 243 245 246 246 246 246 246 244 243 242 241 242 243 245 246 248 249 250 251 254 256 260 264 267 269 271 272 274 277 279 281 282 283 284 285 286 286 287 287 288 288 289 290 291
242 243 244 243 242 240 239 240 241 242 244 245 246 247 246 245 246 246 247 247 246 246 248 248 247 246 242 240 243 246 245 244 245 246 246 248 249 248 249 248 248 249 250 251 252 253 254 256 257 259 262 265 268 269 271 272 274 275 277 279 281 283 284 286 286 287 287 287 287 288 288 288 288 288
241 242 244 245 246 245 245 244 244 244 246 247 248 249 249 248 248 248 249 250 249 247 248 250 250 249 247 243 242 245 247 245 244 245 246 247 248 250 252 254 256 256 256 257 258 259 261 262 264 266 268 270 271 272 273 274 275 277 279 281 284 285 286 287 287 287 287 287 287 287 288 288 288 288
241 242 244 246 247 247 247 248 249 249 249 249 250 250 250 250 250 250 251 252 252 250 249 251 252 252 251 248 244 244 246 246 245 245 247 247 248 249 251 253 255 256 257 258 260 263 265 267 269 271 272 273 273 273 274 274 275 278 280 282 284 285 286 286 286 287 287 288 288 289 289 289 289 289
242 242 243 245 246 247 247 248 250 252 253 253 252 251 251 251 252 253 253 254 255 254 252 252 253 254 254 252 249 247 247 249 249 249 250 250 249 249 250 251 253 255 256 258 261 264 266 269 271 272 273 273 273 273 274 275 277 279 281 283 284 284 285 286 287 288 289 290 291 291 291 291 291 291
245 244 243 244 246 247 247 247 249 251 253 255 255 253 253 252 252 253 253 254 256 256 255 254 254 255 255 254 254 253 253 254 254 254 254 253 252 253 254 255 257 258 259 260 263 265 268 270 272 273 274 275 275 275 276 277 279 281 282 283 284 286 288 289 291 292 292 292 292 291 291 290 290 290
247 247 247 247 248 250 249 248 249 250 252 254 255 254 254 254 254 254 254 254 255 257 257 256 255 255 256 257 257 257 257 258 257 257 256 256 256 258 259 259 261 263 264 264 266 268 270 271 272 273 275 276 277 277 278 279 281 282 283 284 287 289 291 292 293 293 293 293 293 292 292 292 291 291
245 248 249 250 251 252 253 252 251 252 253 254 255 255 255 255 255 255 255 255 255 256 257 257 256 256 256 257 259 258 258 259 259 258 258 258 258 259 259 261 263 266 268 269 270 271 272 273 274 275 276 277 277 277 278 280 281 283 285 287 290 291 292 293 293 293 294 294 295 295 295 295 294 294
245 246 248 249 251 252 253 254 254 254 254 255 256 256 257 256 256 256 256 256 256 257 258 258 257 257 256 257 259 260 260 261 261 261 261 260 259 259 260 261 264 266 269 271 272 272 273 274 275 275 275 275 275 276 279 281 283 284 286 288 289 290 291 292 293 294 295 296 297 297 296 296 296 296
247 247 247 248 249 250 252 253 254 255 255 256 256 256 257 258 258 258 257 256 256 256 258 259 259 258 257 257 258 259 260 261 262 262 263 262 262 262 263 263 265 267 269 270 271 272 273 274 274 274 274 274 275 277 279 281 283 284 286 287 288 290 292 294 295 296 297 298 298 298 297 296 295 296
250 249 248 248 249 249 250 252 254 255 256 256 256 256 256 256 257 258 259 258 257 256 256 258 259 260 259 259 258 258 259 260 261 262 264 263 263 264 265 266 267 269 270 270 271 272 273 274 273 273 274 276 277 279 280 281 282 284 286 287 289 292 294 296 297 298 298 298 297 297 296 295 294 294
252 252 250 249 250 250 250 250 252 254 255 255 256 257 257 257 256 256 257 257 258 257 256 257 258 259 260 260 259 259 259 260 261 263 264 263 263 264 265 266 267 268 270 270 269 269 272 274 273 273 274 276 277 278 279 280 282 283 285 288 291 294 295 297 297 297 297 297 297 296 295 295 294 294
252 252 252 251 251 251 251 250 250 251 252 253 254 255 256 257 257 256 256 256 256 257 257 257 257 258 259 260 260 260 260 260 261 262 263 263 263 264 265 266 265 266 267 268 268 269 271 273 273 272 273 275 277 278 279 281 283 285 287 290 293 295 296 296 296 296 298 298 297 297 297 296 295 294
251 251 251 252 252 252 252 251 251 251 251 252 253 254 255 256 257 257 256 256 256 256 256 256 257 258 259 259 261 262 261 260 259 260 261 261 263 264 265 266 266 266 267 268 269 271 271 272 273 274 275 275 276 279 282 284 286 288 290 292 293 294 295 295 295 297 298 298 298 298 297 297 296 295
251 252 253 254 254 254 254 254 254 254 253 252 252 253 255 256 256 257 257 257 257 258 258 258 258 258 258 258 259 260 261 261 260 260 260 260 261 263 264 265 267 269 270 270 271 272 272 272 273 275 276 276 276 279 283 286 288 290 290 291 292 293 294 295 296 297 298 298 297 297 297 296 296 294
252 253 254 255 256 257 257 257 256 255 254 253 251 251 253 254 256 257 258 258 258 258 259 260 259 258 258 257 257 257 259 260 260 260 260 260 261 262 263 265 269 271 271 270 272 273 274 274 275 276 276 277 278 280 283 285 288 289 289 289 291 292 294 294 295 296 296 296 295 295 296 296 295 294
256 256 256 257 258 258 259 259 258 257 255 254 252 252 252 253 254 255 256 257 258 259 259 258 258 257 258 257 256 256 258 260 260 261 261 261 261 263 264 265 267 269 269 268 270 272 274 275 277 277 276 277 279 281 282 283 284 285 287 289 292 293 293 294 294 294 294 294 294 294 296 297 297 296
258 259 260 260 260 261 261 260 260 260 259 257 256 254 254 254 254 254 255 256 256 257 257 257 256 255 256 256 256 256 257 258 260 261 261 261 262 263 263 264 264 265 266 266 268 271 273 274 274 274 275 276 278 280 281 282 282 282 284 288 291 292 293 293 293 293 293 293 293 294 296 297 297 296
259 259 259 260 261 261 261 260 261 262 263 263 262 261 259 257 256 255 256 256 256 255 255 255 255 254 253 254 254 254 255 257 258 259 260 261 262 262 261 262 262 263 264 266 266 268 271 272 272 272 273 275 277 278 279 280 281 282 284 287 289 290 291 292 291 291 292 292 292 293 295 296 295 294
265 264 262 262 263 263 263 263 264 265 266 266 267 266 265 262 261 260 258 256 255 254 253 253 253 252 252 252 252 252 253 254 256 258 258 259 261 261 260 260 262 263 264 265 265 266 267 270 272 272 273 275 276 276 277 279 280 282 284 286 287 289 291 292 292 292 292 291 291 292 293 294 293 292
265 265 264 264 264 265 266 266 266 266 267 267 268 269 270 268 266 263 260 258 256 254 253 253 252 252 251 251 251 251 251 252 254 256 258 257 258 260 260 260 261 263 263 264 265 266 266 268 270 272 272 274 275 276 277 278 280 282 284 284 285 288 290 291 292 293 292 290 289 290 291 292 292 290
265 264 264 264 264 264 265 267 269 269 269 269 268 269 270 270 268 264 262 261 259 257 255 253 253 253 253 254 255 255 255 255 255 257 259 259 258 258 260 260 260 261 261 262 263 265 266 266 267 270 271 272 273 275 278 279 280 282 283 284 286 289 290 290 291 293 292 290 289 289 290 290 288 287
270 268 268 267 267 266 266 267 269 271 272 271 270 268 267 267 266 265 263 262 261 260 258 256 255 254 254 254 255 256 256 256 256 256 258 260 260 258 259 258 258 259 260 260 262 265 265 264 266 269 271 272 273 275 278 279 280 281 282 283 286 289 290 290 291 292 290 288 288 289 288 286 285 286
271 271 271 270 270 269 269 268 269 271 272 273 273 271 268 266 265 264 264 264 262 262 261 259 257 256 255 254 253 254 255 255 254 253 255 257 259 258 258 258 257 257 259 261 263 264 264 265 267 269 270 272 274 275 277 278 278 279 280 282 284 287 289 290 291 291 289 286 285 284 283 283 284 286
268 270 272 273 273 273 272 271 271 271 272 273 274 273 272 269 266 264 264 264 264 262 261 260 259 258 256 255 253 253 254 254 253 253 253 254 256 256 256 257 256 256 259 262 263 263 263 265 267 267 269 272 275 276 277 278 278 278 278 280 283 286 287 288 288 288 287 286 282 278 277 280 283 286
264 267 269 272 274 275 274 273 272 271 272 273 273 274 273 271 269 266 264 264 263 263 262 262 261 258 256 254 253 252 253 253 252 251 252 253 253 252 254 256 256 256 258 261 262 263 263 264 266 267 267 269 272 275 277 278 279 279 279 280 282 284 285 285 284 284 283 282 279 277 279 281 284 285
262 264 267 269 272 274 275 274 272 271 271 272 274 275 275 274 271 268 266 264 264 264 264 263 262 259 257 254 252 251 252 252 250 250 251 253 253 252 253 256 256 256 258 259 261 263 264 265 267 267 266 266 269 273 277 279 279 279 279 279 281 283 283 281 280 280 279 277 276 278 281 283 284 285
263 264 266 268 270 272 274 274 273 272 271 273 274 276 277 276 273 269 267 266 265 265 264 263 261 260 258 256 253 253 253 251 249 249 251 253 255 254 254 255 255 256 257 258 260 262 263 265 267 267 265 266 268 272 275 277 277 277 277 279 281 281 280 276 275 275 275 275 277 280 282 283 284 284
265 266 266 267 269 270 272 274 274 274 273 273 274 275 277 278 275 272 269 268 266 265 263 262 260 258 257 256 255 253 251 251 251 252 254 254 254 252 251 252 254 254 255 255 257 259 263 266 267 265 265 266 268 271 275 275 274 274 277 279 279 278 275 271 269 270 272 275 277 280 281 282 282 283
266 267 268 268 269 270 271 272 274 275 275 275 275 276 278 279 278 275 272 270 267 265 263 262 260 257 255 255 255 253 252 253 254 255 255 254 253 252 251 251 251 252 253 253 254 258 263 266 266 264 264 266 268 272 274 274 272 273 274 275 274 273 272 268 266 267 271 274 277 278 280 280 281 282
266 267 267 268 269 270 270 271 273 275 276 277 278 279 280 281 280 279 276 273 270 268 267 266 262 257 254 255 255 254 254 255 257 258 258 257 255 253 251 250 249 250 251 251 252 256 261 265 265 263 262 264 267 270 272 272 271 271 271 270 268 267 266 264 264 267 270 273 276 277 277 279 280 281
264 265 266 267 268 269 270 271 272 273 275 277 279 281 282 282 281 281 279 275 272 270 271 272 268 260 254 253 255 257 257 257 257 257 256 255 254 253 250 249 249 250 251 252 252 254 259 264 265 261 261 264 267 269 270 270 269 268 267 265 263 261 260 262 265 268 271 272 274 275 276 278 280 281
264 265 265 265 267 269 270 271 272 272 274 276 278 280 282 283 282 281 280 277 275 273 274 276 275 267 259 256 254 254 257 260 258 252 250 252 253 251 249 247 247 249 251 252 253 254 258 262 262 258 259 263 266 267 268 266 265 264 262 259 258 258 261 263 266 268 270 271 272 273 275 277 280 281
264 265 264 264 265 267 269 271 272 272 273 274 276 279 282 283 282 279 277 276 277 277 276 277 277 274 269 262 255 250 253 258 259 257 258 259 254 248 245 244 245 248 250 251 252 255 258 259 255 253 257 262 265 265 263 261 260 259 256 253 255 258 262 264 266 267 268 269 270 272 274 277 279 280
263 264 264 262 263 265 266 268 270 271 272 272 274 275 278 281 282 279 275 273 273 273 273 275 277 277 274 268 260 253 252 252 251 254 260 261 252 243 241 241 242 244 245 247 251 255 257 255 252 253 258 262 262 261 258 255 255 254 252 252 256 260 262 264 265 265 267 268 269 271 274 276 278 279
261 263 262 261 261 262 264 266 268 270 271 271 271 272 274 277 280 280 277 273 270 269 270 273 277 281 281 271 261 254 252 252 251 254 258 256 248 242 239 239 240 241 243 247 253 257 256 254 254 256 258 257 255 254 253 250 248 249 253 256 258 260 261 263 264 265 266 267 269 271 273 275 277 277
261 262 262 261 260 260 262 264 266 268 270 271 270 270 270 272 275 278 278 276 272 269 269 272 274 278 282 280 272 264 261 259 258 258 259 256 251 247 245 246 246 247 249 251 255 255 253 254 255 254 252 250 248 248 248 247 245 247 253 257 258 259 261 262 263 265 266 267 268 270 272 274 275 274
261 262 262 262 261 260 260 262 264 266 268 269 270 269 268 268 269 272 274 275 275 271 268 268 269 270 273 276 276 272 266 263 261 260 261 259 254 249 247 247 248 248 249 250 251 251 250 251 252 250 247 245 244 244 246 248 250 250 253 257 259 261 262 262 264 265 266 267 268 269 270 272 273 272
260 261 262 263 262 260 259 260 262 264 266 267 268 268 267 266 266 266 268 269 272 272 269 264 263 263 265 267 270 271 270 268 268 267 264 260 255 249 246 246 245 245 245 246 247 247 246 245 247 250 249 245 243 245 248 251 253 254 255 258 261 261 262 263 264 265 266 266 267 268 269 270 271 271
258 259 261 263 263 262 260 260 260 262 264 265 265 265 266 266 265 264 264 265 266 268 268 265 261 259 259 260 264 268 270 269 268 267 265 260 256 251 247 244 242 242 244 244 244 246 246 246 249 253 253 249 247 249 252 254 256 257 258 259 261 262 263 264 265 266 266 266 266 267 268 269 270 271
258 257 259 261 262 262 262 261 262 263 264 264 263 262 263 265 265 264 263 263 263 264 265 266 264 260 257 256 256 260 263 264 263 261 260 259 258 257 255 252 251 251 253 253 252 251 251 251 252 255 255 253 252 253 255 256 258 259 260 260 261 262 263 264 264 265 266 266 266 267 268 269 270 271
258 257 257 258 260 261 261 262 263 264 264 263 262 261 261 262 263 264 263 263 263 262 263 264 265 264 261 258 255 255 258 260 262 261 259 258 257 257 258 260 260 257 254 254 253 252 251 251 253 256 257 256 256 256 257 259 260 261 261 261 261 262 263 264 265 265 265 266 266 267 268 269 271 271
Height
5921 5922 5923 5924 5925 5925 5926 5927 5928 5928 5929 5930 5931 5932 5932 5933 5934 5934 5935 5936 5936 5937 5937 5938 5938 5939 5939 5939 5940 5940 5941 5941 5942 5942 5942 5942 5943 5943 5943 5943 5943 5943 5943 5944 5944 5944 5944 5944 5945 5945 5945 5945 5945 5945 5945 5945 5945 5945 5945 5944 5944 5944 5944 5944 5943 5943 5943 5942 5942 5941 5940 5940 5939 5938
5920 5921 5922 5922 5923 5924 5925 5926 5927 5927 5928 5929 5929 5930 5931 5932 5932 5933 5934 5934 5935 5935 5936 5936 5937 5937 5938 5938 5939 5939 5940 5940 5940 5941 5941 5941 5942 5942 5942 5942 5942 5942 5942 5942 5943 5943 5943 5943 5944 5944 5944 5944 5944 5944 5944 5944 5944 5944 5943 5943 5943 5943 5943 5942 5942 5942 5941 5940 5940 5939 5938 5937 5937 5936
5918 5919 5920 5921 5922 5923 5924 5924 5925 5926 5927 5928 5928 5929 5929 5930 5931 5931 5932 5932 5933 5934 5935 5935 5935 5936 5936 5937 5937 5938 5938 5939 5939 5939 5940 5940 5940 5941 5941 5941 5941 5941 5941 5941 5942 5942 5942 5942 5942 5942 5942 5942 5942 5943 5943 5942 5942 5942 5942 5941 5941 5941 5941 5941 5940 5940 5939 5938 5938 5937 5936 5935 5935 5934
5916 5917 5918 5919 5920 5921 5922 5923 5924 5925 5925 5926 5927 5927 5928 5928 5929 5929 5930 5930 5931 5932 5933 5933 5934 5934 5934 5935 5936 5936 5937 5937 5938 5938 5938 5939 5939 5939 5939 5939 5939 5939 5940 5940 5940 5940 5940 5940 5940 5941 5941 5941 5941 5941 5941 5941 5940 5940 5940 5940 5939 5939 5939 5939 5938 5938 5937 5936 5935 5935 5934 5933 5932 5932
5913 5914 5915 5916 5917 5919 5920 5921 5921 5922 5923 5924 5925 5926 5926 5927 5927 5927 5928 5928 5929 5931 5931 5932 5932 5932 5932 5933 5934 5935 5935 5936 5936 5936 5937 5937 5937 5938 5938 5938 5938 5938 5938 5939 5939 5939 5939 5939 5939 5939 5939 5940 5940 5939 5939 5939 5938 5938 5938 5937 5937 5937 5937 5936 5936 5935 5934 5934 5933 5932 5931 5930 5930 5929
5910 5911 5912 5913 5915 5916 5917 5918 5919 5920 5921 5922 5923 5924 5924 5925 5925 5925 5926 5926 5927 5929 5929 5930 5931 5931 5930 5931 5932 5933 5933 5934 5934 5934 5934 5935 5935 5936 5936 5936 5936 5936 5937 5937 5937 5937 5937 5937 5937 5938 5938 5938 5938 5937 5937 5936 5936 5936 5935 5935 5935 5935 5934 5934 5933 5932 5932 5931 5930 5929 5928 5928 5927 5926
5907 5908 5909 5910 5912 5913 5914 5916 5917 5918 5918 5919 5920 5921 5922 5922 5923 5923 5924 5924 5925 5926 5927 5928 5928 5928 5929 5929 5930 5930 5930 5931 5932 5932 5932 5933 5933 5934 5934 5934 5934 5934 5935 5935 5935 5935 5935 5935 5935 5936 5936 5936 5935 5935 5934 5934 5933 5933 5933 5933 5933 5932 5932 5931 5931 5930 5929 5929 5928 5927 5926 5925 5924 5923
5904 5905 5907 5908 5908 5910 5911 5912 5913 5915 5916 5916 5917 5918 5919 5919 5920 5921 5921 5922 5922 5923 5924 5925 5925 5926 5926 5927 5927 5927 5928 5928 5929 5930 5930 5931 5931 5931 5932 5932 5931 5932 5932 5932 5932 5932 5932 5933 5933 5933 5933 5933 5932 5932 5932 5931 5931 5931 5931 5930 5930 5930 5930 5929 5928 5928 5927 5926 5925 5924 5923 5922 5921 5920
5901 5902 5903 5904 5905 5906 5908 5909 5910 5911 5912 5913 5914 5915 5916 5916 5917 5918 5918 5919 5919 5920 5921 5922 5922 5923 5924 5924 5925 5925 5926 5927 5927 5928 5928 5928 5928 5929 5929 5929 5929 5929 5929 5930 5930 5930 5930 5930 5930 5930 5930 5930 5930 5929 5929 5929 5928 5928 5928 5928 5928 5927 5927 5926 5926 5925 5924 5923 5922 5921 5920 5918 5917 5916
5898 5899 5900 5901 5902 5903 5905 5906 5907 5908 5909 5910 5911 5912 5912 5913 5914 5914 5915 5916 5917 5917 5918 5919 5920 5920 5921 5921 5922 5923 5924 5924 5924 5925 5926 5926 5925 5926 5926 5926 5927 5927 5927 5927 5927 5927 5927 5927 5927 5927 5927 5927 5927 5926 5926 5926 5925 5925 5925 5925 5925 5925 5924 5923 5923 5922 5921 5920 5919 5917 5916 5915 5914 5913
5894 5895 5896 5897 5898 5899 5901 5902 5903 5904 5905 5906 5907 5908 5909 5909 5910 5911 5912 5913 5914 5914 5915 5916 5916 5917 5918 5918 5918 5919 5920 5921 5922 5922 5922 5922 5922 5922 5923 5923 5924 5924 5924 5924 5924 5924 5924 5924 5924 5924 5924 5923 5923 5923 5923 5923 5922 5922 5922 5922 5922 5921 5921 5920 5919 5919 5917 5916 5915 5914 5912 5911 5910 5909
5891 5892 5893 5894 5895 5896 5897 5898 5899 5900 5901 5902 5904 5905 5905 5906 5907 5907 5908 5909 5910 5911 5911 5912 5913 5913 5914 5914 5915 5916 5916 5917 5919 5918 5917 5917 5918 5918 5919 5920 5921 5921 5920 5920 5920 5920 5920 5920 5920 5920 5920 5920 5919 5919 5919 5919 5919 5919 5918 5918 5919 5918 5918 5917 5916 5915 5914 5912 5911 5910 5909 5907 5906 5905
5886 5888 5889 5890 5891 5892 5893 5894 5895 5896 5897 5898 5899 5900 5901 5902 5903 5903 5904 5905 5906 5907 5908 5908 5909 5910 5911 5911 5911 5912 5912 5913 5913 5914 5914 5914 5914 5915 5915 5916 5917 5917 5917 5917 5916 5916 5917 5917 5917 5917 5917 5916 5916 5916 5916 5916 5915 5915 5915 5915 5915 5915 5914 5913 5912 5911 5910 5909 5907 5906 5905 5903 5902 5901
5882 5883 5885 5886 5887 5888 5889 5890 5891 5892 5893 5894 5895 5895 5896 5898 5899 5899 5900 5901 5902 5903 5904 5904 5905 5906 5907 5908 5908 5908 5908 5908 5908 5909 5910 5911 5911 5911 5912 5912 5913 5913 5913 5913 5913 5913 5913 5914 5914 5914 5913 5913 5913 5912 5912 5912 5912 5911 5911 5911 5911 5911 5910 5909 5908 5907 5906 5905 5904 5902 5901 5899 5898 5897
5878 5879 5881 5882 5883 5884 5885 5886 5887 5887 5888 5889 5890 5891 5891 5892 5894 5895 5895 5896 5897 5898 5899 5900 5901 5902 5903 5904 5904 5904 5904 5904 5904 5905 5906 5907 5907 5908 5908 5908 5909 5909 5909 5908 5909 5910 5909 5910 5910 5910 5910 5910 5909 5909 5908 5908 5908 5908 5908 5908 5907 5906 5905 5905 5904 5903 5902 5901 5899 5898 5896 5895 5893 5892
5874 5875 5876 5877 5878 5879 5880 5881 5882 5883 5883 5884 5885 5886 5886 5887 5888 5890 5891 5891 5892 5893 5895 5896 5896 5898 5899 5899 5900 5900 5900 5900 5900 5901 5901 5902 5903 5903 5904 5905 5905 5906 5905 5904 5905 5906 5906 5906 5906 5906 5906 5906 5905 5904 5904 5904 5904 5904 5904 5903 5903 5902 5901 5901 5900 5899 5897 5896 5895 5893 5892 5890 5889 5887
5871 5871 5872 5873 5873 5874 5875 5876 5877 5877 5878 5879 5879 5880 5881 5882 5884 5885 5886 5887 5888 5888 5889 5891 5892 5894 5895 5895 5895 5896 5895 5895 5895 5896 5897 5898 5899 5899 5900 5901 5901 5902 5902 5900 5901 5902 5901 5901 5901 5901 5901 5901 5901 5900 5900 5900 5900 5899 5899 5899 5898 5898 5898 5897 5895 5894 5893 5891 5890 5888 5887 5885 5884 5882
5866 5867 5867 5868 5869 5870 5870 5871 5872 5872 5872 5873 5874 5875 5876 5877 5879 5880 5881 5883 5883 5884 5884 5886 5888 5889 5889 5890 5891 5890 5889 5889 5891 5892 5893 5893 5894 5895 5896 5896 5897 5898 5898 5897 5897 5897 5897 5896 5897 5897 5896 5896 5896 5896 5895 5896 5895 5894 5894 5894 5894 5894 5893 5892 5890 5889 5888 5886 5885 5883 5882 5881 5879 5877
5862 5863 5863 5864 5865 5865 5866 5866 5866 5867 5867 5867 5869 5870 5871 5872 5873 5875 5877 5878 5879 5879 5880 5881 5883 5884 5884 5885 5886 5885 5884 5884 5885 5886 5887 5888 5888 5889 5890 5892 5893 5893 5894 5893 5892 5893 5893 5892 5892 5893 5892 5891 5891 5891 5891 5891 5891 5889 5888 5889 5889 5889 5888 5887 5886 5884 5883 5882 5880 5879 5878 5876 5874 5873
5859 5859 5860 5860 5860 5861 5862 5862 5862 5862 5862 5862 5864 5866 5866 5867 5868 5870 5872 5873 5873 5873 5874 5876 5877 5878 5878 5879 5880 5879 5879 5879 5880 5880 5881 5882 5883 5885 5886 5887 5888 5889 5889 5888 5888 5888 5889 5888 5888 5888 5888 5887 5886 5886 5886 5886 5887 5885 5884 5884 5884 5883 5883 5882 5881 5879 5878 5877 5876 5874 5873 5871 5869 5868
5855 5856 5856 5857 5857 5857 5858 5857 5857 5857 5857 5858 5860 5861 5862 5862 5863 5865 5866 5866 5867 5867 5868 5869 5870 5872 5872 5872 5873 5874 5873 5874 5874 5874 5876 5877 5878 5881 5882 5883 5884 5884 5883 5883 5883 5884 5884 5884 5883 5883 5883 5882 5882 5882 5880 5880 5882 5881 5880 5879 5879 5878 5878 5877 5875 5874 5874 5872 5871 5870 5868 5867 5865 5863
5853 5853 5853 5853 5853 5854 5854 5853 5853 5853 5853 5854 5855 5856 5856 5857 5858 5861 5861 5859 5860 5860 5861 5862 5863 5864 5865 5866 5866 5867 5867 5868 5868 5868 5871 5873 5873 5875 5877 5878 5878 5879 5879 5878 5879 5880 5879 5878 5878 5879 5878 5878 5878 5877 5876 5875 5875 5876 5875 5875 5874 5873 5872 5872 5871 5869 5869 5868 5866 5865 5864 5862 5860 5859
5849 5849 5850 5849 5849 5849 5849 5848 5849 5849 5849 5850 5850 5850 5850 5851 5854 5856 5854 5852 5853 5853 5853 5855 5855 5856 5858 5858 5859 5860 5861 5862 5861 5862 5865 5867 5867 5868 5871 5872 5872 5873 5874 5873 5873 5875 5874 5872 5873 5874 5874 5874 5873 5871 5871 5871 5870 5870 5870 5869 5869 5869 5867 5866 5865 5864 5864 5863 5862 5860 5859 5858 5856 5855
5845 5845 5845 5845 5845 5845 5844 5844 5844 5844 5844 5845 5845 5845 5845 5847 5849 5849 5845 5845 5846 5846 5846 5847 5848 5849 5851 5851 5852 5853 5855 5855 5855 5856 5858 5860 5861 5862 5865 5866 5867 5868 5868 5868 5867 5868 5869 5868 5868 5868 5869 5869 5868 5865 5866 5866 5865 5865 5864 5863 5863 5864 5863 5861 5860 5859 5858 5857 5857 5855 5854 5853 5852 5851
5841 5840 5840 5840 5841 5840 5840 5840 5839 5840 5840 5840 5841 5841 5840 5841 5842 5840 5838 5839 5840 5839 5840 5841 5841 5843 5845 5847 5848 5849 5850 5851 5852 5851 5852 5853 5855 5857 5859 5860 5862 5862 5862 5861 5862 5862 5863 5863 5863 5862 5863 5864 5863 5861 5860 5861 5860 5860 5859 5857 5857 5857 5857 5856 5855 5854 5853 5852 5851 5850 5849 5848 5847 5847
5835 5836 5836 5836 5836 5836 5836 5836 5835 5835 5835 5835 5835 5836 5835 5834 5834 5833 5832 5832 5832 5832 5833 5835 5835 5837 5840 5842 5843 5843 5844 5846 5847 5846 5846 5848 5849 5851 5852 5854 5856 5856 5854 5855 5857 5857 5857 5858 5858 5857 5856 5857 5858 5857 5856 5855 5855 5855 5854 5852 5851 5851 5850 5849 5849 5849 5848 5847 5846 5845 5844 5844 5843 5843
5831 5831 5831 5831 5831 5831 5831 5832 5831 5831 5830 5830 5830 5829 5829 5828 5828 5826 5825 5826 5826 5826 5827 5827 5829 5831 5834 5835 5836 5836 5836 5838 5839 5839 5840 5841 5842 5844 5845 5846 5849 5850 5847 5848 5851 5852 5851 5852 5852 5851 5851 5851 5852 5852 5851 5850 5849 5850 5849 5848 5846 5846 5845 5843 5843 5843 5843 5843 5843 5842 5840 5840 5839 5839
5826 5827 5827 5827 5827 5827 5827 5827 5827 5826 5825 5824 5824 5824 5823 5823 5822 5820 5819 5819 5819 5819 5820 5821 5823 5825 5827 5827 5828 5829 5829 5830 5831 5832 5833 5834 5836 5837 5837 5839 5842 5843 5841 5843 5846 5846 5846 5846 5846 5845 5846 5847 5847 5847 5846 5844 5844 5843 5844 5843 5842 5841 5841 5838 5837 5838 5838 5838 5838 5838 5837 5836 5836 5835
5822 5822 5822 5822 5822 5822 5822 5822 5822 5821 5821 5820 5819 5819 5818 5817 5816 5815 5814 5813 5812 5812 5813 5815 5816 5818 5820 5820 5820 5821 5821 5822 5824 5826 5826 5827 5828 5829 5829 5831 5834 5836 5836 5838 5840 5840 5841 5841 5840 5840 5842 5842 5842 5841 5840 5839 5838 5838 5839 5839 5837 5837 5836 5834 5833 5833 5833 5833 5833 5833 5833 5833 5832 5831
5817 5817 5817 5818 5818 5818 5817 5817 5817 5816 5816 5815 5814 5813 5813 5812 5812 5810 5808 5807 5806 5806 5807 5808 5809 5811 5812 5812 5813 5813 5813 5815 5818 5819 5818 5818 5819 5821 5823 5824 5826 5828 5830 5832 5833 5834 5835 5835 5835 5835 5837 5837 5837 5836 5835 5834 5833 5833 5834 5834 5833 5832 5832 5830 5828 5828 5829 5829 5829 5829 5828 5828 5828 5827
5812 5812 5812 5813 5813 5813 5812 5812 5812 5811 5811 5810 5809 5808 5808 5807 5807 5805 5803 5802 5801 5800 5801 5801 5802 5804 5805 5805 5805 5806 5807 5808 5810 5811 5811 5812 5813 5815 5816 5817 5818 5821 5824 5824 5825 5827 5828 5828 5829 5829 5830 5831 5831 5831 5830 5829 5828 5827 5828 5829 5828 5827 5827 5826 5825 5824 5825 5825 5824 5824 5824 5824 5823 5823
5807 5808 5808 5808 5808 5808 5808 5807 5807 5807 5806 5806 5805 5804 5803 5802 5801 5800 5798 5796 5795 5794 5794 5794 5795 5797 5798 5797 5799 5801 5802 5802 5803 5804 5805 5806 5808 5809 5809 5809 5811 5814 5817 5817 5818 5820 5821 5822 5823 5824 5825 5825 5825 5825 5824 5824 5823 5823 5824 5824 5824 5822 5822 5822 5821 5820 5820 5820 5820 5820 5820 5820 5819 5819
5803 5803 5803 5803 5804 5804 5803 5803 5802 5802 5802 5801 5800 5799 5798 5798 5797 5795 5794 5792 5790 5789 5788 5788 5789 5791 5792 5791 5792 5795 5796 5796 5798 5799 5799 5800 5802 5802 5802 5802 5804 5807 5809 5810 5812 5814 5816 5817 5818 5819 5819 5819 5819 5819 5818 5819 5819 5819 5819 5819 5818 5817 5817 5817 5817 5817 5817 5816 5816 5816 5816 5815 5815 5815
5798 5798 5799 5799 5800 5800 5799 5799 5798 5798 5798 5797 5796 5795 5794 5793 5792 5791 5789 5787 5786 5784 5783 5782 5782 5784 5785 5785 5787 5788 5789 5791 5792 5793 5793 5794 5794 5794 5795 5796 5797 5799 5801 5803 5806 5809 5810 5811 5812 5813 5813 5814 5814 5814 5813 5813 5814 5815 5814 5814 5813 5813 5813 5813 5813 5813 5813 5813 5812 5812 5812 5811 5811 5811
5793 5793 5794 5795 5795 5795 5795 5795 5794 5794 5793 5793 5792 5791 5790 5789 5788 5787 5785 5783 5781 5780 5779 5778 5777 5778 5778 5779 5781 5782 5783 5785 5787 5787 5787 5787 5786 5786 5788 5790 5792 5793 5795 5797 5800 5802 5804 5805 5806 5807 5807 5808 5809 5809 5808 5808 5809 5809 5809 5808 5808 5808 5809 5809 5809 5809 5809 5809 5808 5808 5808 5807 5807 5807
5787 5788 5788 5789 5790 5790 5790 5790 5790 5790 5789 5788 5788 5787 5786 5785 5784 5783 5781 5779 5777 5776 5775 5774 5773 5773 5773 5774 5775 5776 5776 5777 5779 5780 5780 5780 5778 5778 5780 5783 5786 5789 5791 5793 5794 5796 5798 5799 5800 5801 5801 5802 5803 5803 5803 5803 5803 5804 5804 5804 5804 5804 5804 5805 5805 5805 5805 5805 5804 5804 5804 5803 5803 5803
5781 5782 5782 5784 5785 5785 5785 5785 5785 5785 5785 5784 5784 5783 5783 5782 5781 5780 5778 5776 5774 5773 5771 5770 5770 5769 5769 5769 5770 5770 5770 5771 5771 5773 5773 5774 5772 5772 5774 5777 5781 5784 5786 5787 5789 5790 5792 5793 5794 5795 5795 5796 5797 5797 5797 5797 5797 5798 5799 5800 5800 5800 5800 5800 5800 5800 5800 5800 5800 5799 5799 5799 5799 5799
5776 5776 5777 5778 5779 5780 5780 5780 5780 5780 5780 5780 5779 5779 5778 5778 5777 5777 5775 5774 5772 5770 5769 5768 5767 5766 5766 5766 5766 5766 5766 5766 5766 5768 5768 5768 5768 5768 5770 5773 5776 5778 5780 5781 5783 5784 5786 5787 5788 5789 5790 5790 5791 5791 5791 5792 5793 5793 5794 5795 5795 5796 5796 5796 5796 5796 5796 5796 5795 5795 5795 5795 5795 5795
5770 5771 5771 5772 5773 5774 5775 5775 5775 5775 5776 5775 5775 5774 5774 5774 5773 5773 5772 5771 5770 5768 5766 5765 5764 5764 5763 5762 5762 5763 5763 5763 5764 5765 5765 5765 5765 5766 5767 5769 5770 5772 5774 5776 5778 5780 5781 5782 5782 5783 5784 5784 5785 5785 5786 5787 5788 5789 5789 5790 5791 5792 5792 5792 5792 5792 5791 5791 5791 5791 5791 5791 5791 5791
5765 5765 5766 5766 5767 5768 5769 5770 5771 5771 5771 5771 5771 5770 5770 5769 5769 5769 5768 5768 5767 5765 5764 5763 5762 5761 5761 5760 5759 5760 5761 5761 5761 5762 5762 5762 5762 5763 5764 5765 5766 5768 5770 5771 5773 5774 5775 5776 5776 5777 5777 5778 5780 5781 5781 5782 5784 5785 5785 5785 5786 5787 5787 5787 5787 5787 5787 5787 5787 5786 5787 5787 5787 5786
5759 5760 5760 5761 5762 5763 5764 5765 5766 5766 5766 5766 5766 5766 5765 5765 5764 5764 5764 5764 5763 5762 5762 5760 5760 5759 5758 5758 5757 5758 5758 5758 5758 5758 5758 5758 5758 5759 5760 5761 5762 5763 5765 5766 5767 5769 5769 5770 5771 5772 5773 5774 5776 5777 5777 5777 5779 5781 5781 5781 5782 5783 5783 5782 5782 5782 5782 5782 5782 5782 5782 5782 5782 5782
5753 5754 5755 5755 5756 5757 5758 5759 5760 5761 5761 5761 5761 5761 5761 5761 5760 5760 5759 5759 5759 5759 5758 5757 5757 5756 5755 5755 5755 5754 5754 5754 5754 5754 5754 5754 5755 5755 5756 5757 5758 5759 5760 5761 5763 5763 5764 5766 5768 5769 5769 5771 5772 5772 5773 5774 5775 5776 5777 5777 5777 5778 5778 5778 5777 5777 5777 5777 5777 5777 5777 5778 5778 5778
5748 5749 5750 5750 5751 5752 5753 5754 5755 5755 5756 5756 5756 5756 5756 5756 5756 5756 5755 5755 5754 5754 5754 5753 5753 5752 5752 5752 5751 5751 5750 5750 5751 5751 5751 5751 5752 5753 5754 5754 5755 5756 5757 5758 5759 5759 5760 5762 5764 5765 5765 5767 5769 5769 5769 5770 5771 5771 5773 5773 5773 5773 5773 5773 5772 5772 5772 5772 5772 5772 5773 5773 5773 5773
5743 5744 5745 5745 5746 5747 5748 5749 5749 5750 5750 5750 5751 5751 5751 5751 5751 5751 5751 5750 5750 5750 5750 5749 5749 5749 5748 5748 5748 5748 5748 5748 5748 5749 5749 5749 5750 5751 5751 5751 5752 5753 5755 5756 5756 5756 5757 5759 5761 5761 5762 5764 5765 5765 5766 5766 5766 5767 5768 5768 5768 5768 5768 5767 5767 5767 5767 5767 5767 5767 5768 5768 5768 5768
5737 5738 5739 5740 5740 5741 5742 5743 5744 5744 5744 5745 5745 5746 5746 5747 5747 5746 5746 5746 5746 5746 5745 5745 5745 5745 5745 5745 5745 5745 5745 5745 5746 5746 5746 5747 5747 5748 5749 5749 5749 5750 5752 5753 5754 5754 5755 5757 5757 5758 5758 5759 5760 5761 5762 5762 5762 5762 5763 5763 5763 5763 5763 5762 5763 5763 5762 5762 5762 5762 5762 5763 5763 5763